Location: Unspecified
(34.4950°S, 58.5160°W)
Time: 14:12:12
(UTC+00:00)

BlueWalker 3 - Pass Details

Date: 15 February 2026
Orbit: 451 x 458 km, 53.2° (Epoch: 4 March)

Event Time Altitude Azimuth Distance (km) Brightness Sun altitude
Rises 23:42:22 0° 335° (NNW) 2,452 5.5 -11.5°
Reaches altitude 10° 23:44:35 10° 343° (NNW) 1,588 4.4 -12.0°
Maximum altitude 23:47:53 36° 51° (NE) 749 2.3 -12.6°
Drops below altitude 10° 23:51:14 10° 118° (ESE) 1,612 4.2 -13.2°
Enters shadow 23:51:25 - 119° (ESE) 1,680 4.3 -13.2°
